Location: Br�ttisellen
(47.4227°N, 8.6287°E)
Time: 23:07:39
(UTC+00:00)

Cosmos 2082 Rocket - Pass Details

Date: 09 April 2020
Orbit: 831 x 855 km, 71.0° (Epoch: 03 June)

Event Time Altitude Azimuth Distance (km) Brightness Sun altitude
Exits shadow 22:15:16 54° 332° (NNW) 1,013 2.8 -32.3°
Drops below altitude 10° 22:20:11 10° 21° (NNE) 2,472 5.1 -32.6°
Sets 22:22:42 0° 26° (NNE) 3,415 5.9 -32.8°
